Regional Weather Roundup
Issued by NWS

Home | Current Version | Previous Version | Graphics & Text | Print | Product List | Glossary On
Versions: 1 2 3 4 5 6 7 8 9 10 11 12 13 14 15 16 17 18 19 20 21 22 23 24 25 26 27 28 29 30 31 32 33 34 35 36 37 38 39 40 41 42 43 44 45 46 47 48 49 50
000
ASUS43 KDTX 171910
RWRMI
MICHIGAN HOURLY REGIONAL WEATHER ROUNDUP
NATIONAL WEATHER SERVICE DETROIT/PONTIAC MI
300 PM EDT WED SEP 17 2014

NOTE: "FAIR" INDICATES FEW OR NO CLOUDS BELOW 12,000 FEET WITH NO
SIGNIFICANT WEATHER AND/OR OBSTRUCTION TO VISIBILITY.

MIZ047>049-052>055-059>063-066>070-074>076-081>083-172000-
SOUTHEAST LOWER MICHIGAN

CITY           SKY/WX    TMP DP  RH WIND       PRES   REMARKS
ADRIAN         SUNNY     67  40  37 W9        30.01F
ALMA           MOSUNNY   68  42  38 SW10      29.98F
ANN ARBOR      PTSUNNY   67  45  45 SW7       30.00F
BAD AXE        MOSUNNY   65  48  55 W10       29.98S
CARO           PTSUNNY   66  47  51 SW9       29.97F
DETROIT CITY   SUNNY     67  42  40 VRB7      29.99F
DETROIT        MOSUNNY   66  44  45 W6        30.00F
FLINT          PTSUNNY   65  45  48 W10       29.99F
GROSSE ILE     SUNNY     64  46  52 CALM      30.00S
HILLSDALE      MOSUNNY   65  43  43 NW6       30.01F
HOWELL         SUNNY     64  42  44 W6        30.00S

CITY           SKY/WX    TMP DP  RH WIND       PRES   REMARKS
JACKSON        SUNNY     66  41  40 SW8       30.00F
LAMBERTVILLE   SUNNY     68  37  32 SW6       30.01F
LANSING        MOSUNNY   64  41  42 W9        30.00F
LAPEER         FAIR      64  43  46 NW6       29.99S
MASON          MOSUNNY   65  44  45 W6        30.00F
MONROE         SUNNY     66  45  45 NW8       29.99F
MT. CLEMENS    MOSUNNY   64  45  49 SE8       29.98F
PONTIAC        MOSUNNY   63  41  44 NW8       29.99F
PORT HOPE        N/A     66  45  46 VRB7      29.95F
PORT HURON     MOSUNNY   63  45  51 CALM      29.99S
TRI CITIES     MOSUNNY   67  45  45 W8        29.98F
TROY           SUNNY     66  40  38 W8        30.01S
SAGINAW HB     MOSUNNY   68  45  42 SW9       29.97F
$$
MIZ043>046-050>051-056>058-064>065-071>073-077>080-172000-
SOUTHWEST LOWER MICHIGAN

CITY           SKY/WX    TMP DP  RH WIND       PRES   REMARKS
BATTLE CREEK   CLOUDY    64  44  48 W9        30.02S
BENTON HARBOR  MOSUNNY   64  46  52 W10       30.02F
BIG RAPIDS     MOSUNNY   64  50  60 W12G18    29.98S
COLDWATER      MOSUNNY   66  46  48 W6        30.01S
FREMONT        MOCLDY    64  41  42 W12       29.99F
HOLLAND        PTSUNNY   66  48  52 W12       30.02F
GRAND RAPIDS   PTSUNNY   64  49  57 W13       30.00F
IONIA          FAIR      65  48  54 W10       29.99S
KALAMAZOO      MOSUNNY   64  44  48 W10       30.02F
LUDINGTON      SUNNY     63  48  57 W8        29.99F
MARSHALL       PTSUNNY   65  44  46 W8        30.01S
MOUNT PLEASANT MOSUNNY   67  44  43 SW6       29.97F
MUSKEGON       PTSUNNY   65  46  50 W12       30.01S
SOUTH HAVEN    MOSUNNY   65  50  57 W10       30.02S
$$
MIZ016>042-172000-
NORTHERN LOWER MICHIGAN

CITY           SKY/WX    TMP DP  RH WIND       PRES   REMARKS
ALPENA         MOSUNNY   69  45  41 SW10G20   29.92F
BEAVER ISLAND  MOSUNNY   65  52  62 SW13      29.93S
BELLAIRE       MOSUNNY   66  43  42 W7        29.95S
CADILLAC       PTSUNNY   63  47  55 W3        29.97F
CHARLEVOIX     MOSUNNY   65  46  49 SW12      29.97F
FRANKFORT      SUNNY     64  49  57 SW10      29.97S
GAYLORD        PTSUNNY   64  44  48 W14G22    29.95F
GRAYLING       PTSUNNY   63  44  50 W6        29.96F
HARBOR SPRINGS MOSUNNY   65  51  62 W9        29.93F
HOUGHTON LAKE  PTSUNNY   63  46  54 W8        29.96F
MANISTEE       SUNNY     64  43  45 W10G16    29.99S
OSCODA         MOSUNNY   69  46  42 W12       29.93F
PELLSTON       MOSUNNY   67  44  43 SW17G24   29.93S
ROGERS CITY    CLOUDY    66  48  52 W12       29.92F
TRAVERSE CITY  MOSUNNY   67  43  41 W12G18    29.94F
$$
MIZ007>008-015-172000-
EASTERN UPPER MICHIGAN

CITY           SKY/WX    TMP DP  RH WIND       PRES   REMARKS
KINROSS        CLOUDY    63  48  59 NW12G17   29.90S
MACKINAC ISLAN PTSUNNY   62  49  63 SW6G18    29.91S
NEWBERRY       CLOUDY    57  49  75 NW12G21   29.93R
S. S. MARIE    CLOUDY    57  48  72 W10       29.91R
MUNISING         N/A     54  48  80 N15       29.97R
$$
MIZ004>006-011>014-085-172000-
CENTRAL UPPER MICHIGAN

CITY           SKY/WX    TMP DP  RH WIND       PRES   REMARKS
MANISTIQUE     MOSUNNY   63  53  69 S10G16    29.91R
ESCANABA       SUNNY     64  50  59 S13       29.91S
MENOMINEE      MOSUNNY   68  46  45 N3        29.91F
SAWYER-GWINN   CLOUDY    48  45  87 N14G21    29.97R
$$
MIZ001>003-009>011-084-172000-
WESTERN UPPER MICHIGAN

CITY           SKY/WX    TMP DP  RH WIND       PRES   REMARKS
IRON MOUNTAIN  MOSUNNY   69  43  38 NW10G18   29.91F
HOUGHTON       CLOUDY    44  40  85 E6        30.01R
COPPER HARBOR    N/A     44  39  82 E10       30.03R
IRONWOOD       CLOUDY    52  48  87 N8        29.97R
$$

ABBREVIATIONS USED IN REMARKS
   TC - TEMPERATURE IN CELSIUS
  WCI - WIND CHILL INDEX
   HX - HEAT INDEX
  VSB - VISIBILITY




USA.gov is the U.S. government's official web portal to all federal, state and local government web resources and services.